SAS24A ESGG-ENVA

Flight info

Callsign SAS24A
Flight time 1h 3m
Altitude 36000
Route SABAK L997 REGMA DCT VEVOD
Aircraft A21N/M-SDE3FGHIRWY/LB1

Departure

Time 2026-05-07 09:37
Airport Göteborg Landvetter Airport (ESGG)

Arrival

Time 2026-05-07 10:40
Airport Trondheim Airport, Værnes (ENVA)
Time Latitude Longitude Altitude Speed Heading
2026-05-07 09:14 57.66936 12.29457 518 ft 0 kts 117°
2026-05-07 09:27 57.66937 12.29456 518 ft 1 kts 117°
2026-05-07 09:27 57.66943 12.29432 518 ft 2 kts 117°
2026-05-07 09:27 57.66956 12.29387 518 ft 0 kts 117°
2026-05-07 09:28 57.66960 12.29365 518 ft 2 kts 89°
2026-05-07 09:28 57.66956 12.29338 518 ft 2 kts 56°
2026-05-07 09:28 57.66948 12.29322 518 ft 0 kts 28°
2026-05-07 09:28 57.66942 12.29317 518 ft 1 kts 24°
2026-05-07 09:29 57.66940 12.29316 518 ft 0 kts 25°
2026-05-07 09:31 57.66941 12.29316 518 ft 0 kts 25°
2026-05-07 09:31 57.66952 12.29324 518 ft 3 kts 13°
2026-05-07 09:32 57.66988 12.29276 518 ft 9 kts 300°
2026-05-07 09:32 57.67041 12.29192 516 ft 13 kts
2026-05-07 09:32 57.67137 12.29272 516 ft 16 kts 26°
2026-05-07 09:32 57.67247 12.29371 516 ft 18 kts 26°
2026-05-07 09:33 57.67355 12.29467 516 ft 11 kts 21°
2026-05-07 09:33 57.67426 12.29410 513 ft 14 kts 297°
2026-05-07 09:33 57.67457 12.29283 509 ft 4 kts 280°
2026-05-07 09:33 57.67457 12.29276 509 ft 0 kts 277°
2026-05-07 09:35 57.67458 12.29268 509 ft 2 kts 274°
2026-05-07 09:35 57.67453 12.29168 508 ft 13 kts 262°
2026-05-07 09:36 57.67432 12.29027 508 ft 7 kts 215°
2026-05-07 09:36 57.67327 12.28931 508 ft 46 kts 206°
2026-05-07 09:36 57.66799 12.28450 509 ft 119 kts 206°
2026-05-07 09:36 57.65866 12.27603 534 ft 173 kts 207°
2026-05-07 09:37 57.64800 12.26623 1281 ft 167 kts 207°
2026-05-07 09:37 57.63789 12.25702 2064 ft 166 kts 207°
2026-05-07 09:37 57.62735 12.24751 2629 ft 176 kts 207°
2026-05-07 09:37 57.61592 12.23719 3097 ft 191 kts 207°
2026-05-07 09:38 57.60350 12.22596 3527 ft 208 kts 207°
2026-05-07 09:38 57.59002 12.21378 3959 ft 226 kts 206°
2026-05-07 09:38 57.57561 12.19909 4323 ft 248 kts 220°
2026-05-07 09:38 57.56569 12.17251 4800 ft 262 kts 254°
2026-05-07 09:39 57.56238 12.13904 5588 ft 268 kts 262°
2026-05-07 09:39 57.55926 12.10505 6435 ft 271 kts 261°
2026-05-07 09:39 57.55583 12.07064 7288 ft 274 kts 261°
2026-05-07 09:39 57.55604 12.03574 8074 ft 275 kts 288°
2026-05-07 09:40 57.56618 12.00649 8901 ft 275 kts 321°
2026-05-07 09:40 57.58314 11.99109 9705 ft 278 kts 345°
2026-05-07 09:40 57.60198 11.98339 10469 ft 282 kts 347°
2026-05-07 09:40 57.62154 11.97558 10939 ft 297 kts 347°
2026-05-07 09:41 57.64225 11.96726 11353 ft 313 kts 346°
2026-05-07 09:41 57.66376 11.95862 12015 ft 320 kts 346°
2026-05-07 09:41 57.68546 11.94989 12788 ft 323 kts 346°
2026-05-07 09:41 57.70738 11.94104 13533 ft 326 kts 345°
2026-05-07 09:42 57.72954 11.93207 14246 ft 330 kts 345°
2026-05-07 09:42 57.75197 11.92297 14951 ft 333 kts 345°
2026-05-07 09:42 57.77462 11.91374 15641 ft 337 kts 345°
2026-05-07 09:42 57.79747 11.90441 16311 ft 340 kts 345°
2026-05-07 09:43 57.82057 11.89497 16969 ft 344 kts 345°
2026-05-07 09:43 57.84387 11.88546 17627 ft 346 kts 345°
2026-05-07 09:43 57.86742 11.87584 18263 ft 350 kts 345°
2026-05-07 09:43 57.89115 11.86613 18879 ft 353 kts 344°
2026-05-07 09:44 57.91511 11.85632 19493 ft 356 kts 344°
2026-05-07 09:44 57.93926 11.84640 20091 ft 359 kts 344°
2026-05-07 09:44 57.96365 11.83637 20691 ft 362 kts 343°
2026-05-07 09:44 57.98821 11.82628 21278 ft 364 kts 343°
2026-05-07 09:45 58.01291 11.81609 21844 ft 367 kts 343°
2026-05-07 09:45 58.03782 11.80579 22386 ft 369 kts 343°
2026-05-07 09:45 58.06287 11.79541 22918 ft 372 kts 343°
2026-05-07 09:45 58.08811 11.78494 23454 ft 374 kts 343°
2026-05-07 09:46 58.11362 11.77437 23968 ft 377 kts 343°
2026-05-07 09:46 58.13945 11.76365 24485 ft 379 kts 343°
2026-05-07 09:46 58.16510 11.75298 24982 ft 381 kts 343°
2026-05-07 09:46 58.19093 11.74220 25459 ft 383 kts 343°
2026-05-07 09:47 58.21690 11.73137 25926 ft 385 kts 343°
2026-05-07 09:47 58.24299 11.72049 26394 ft 386 kts 343°
2026-05-07 09:47 58.26915 11.70953 26839 ft 388 kts 343°
2026-05-07 09:47 58.29543 11.69852 27252 ft 389 kts 343°
2026-05-07 09:48 58.32182 11.68743 27660 ft 391 kts 343°
2026-05-07 09:48 58.34832 11.67630 28066 ft 392 kts 343°
2026-05-07 09:48 58.37486 11.66512 28468 ft 394 kts 343°
2026-05-07 09:48 58.40154 11.65389 28852 ft 395 kts 343°
2026-05-07 09:49 58.42838 11.64256 29194 ft 397 kts 343°
2026-05-07 09:49 58.45538 11.63114 29537 ft 398 kts 343°
2026-05-07 09:49 58.48235 11.61971 29890 ft 399 kts 343°
2026-05-07 09:49 58.50936 11.60827 30232 ft 401 kts 342°
2026-05-07 09:50 58.53652 11.59673 30534 ft 402 kts 343°
2026-05-07 09:50 58.56374 11.58515 30861 ft 403 kts 342°
2026-05-07 09:50 58.59103 11.57353 31172 ft 404 kts 343°
2026-05-07 09:50 58.61837 11.56184 31435 ft 405 kts 342°
2026-05-07 09:51 58.64580 11.55010 31684 ft 407 kts 342°
2026-05-07 09:51 58.67336 11.53830 31917 ft 408 kts 342°
2026-05-07 09:51 58.70106 11.52644 32176 ft 409 kts 342°
2026-05-07 09:51 58.72865 11.51459 32500 ft 408 kts 342°
2026-05-07 09:52 58.75613 11.50279 32835 ft 406 kts 342°
2026-05-07 09:52 58.78356 11.49097 33124 ft 405 kts 342°
2026-05-07 09:52 58.81096 11.47915 33374 ft 405 kts 342°
2026-05-07 09:52 58.83832 11.46730 33642 ft 405 kts 342°
2026-05-07 09:53 58.86566 11.45547 33879 ft 404 kts 342°
2026-05-07 09:53 58.89295 11.44365 34100 ft 403 kts 341°
2026-05-07 09:53 58.92016 11.43180 34298 ft 403 kts 341°
2026-05-07 09:53 58.94738 11.41995 34473 ft 403 kts 341°
2026-05-07 09:54 58.97470 11.40803 34614 ft 404 kts 341°
2026-05-07 09:54 59.00200 11.39607 34750 ft 405 kts 341°
2026-05-07 09:54 59.02944 11.38406 34885 ft 406 kts 341°
2026-05-07 09:55 59.08478 11.36171 35083 ft 412 kts 345°
2026-05-07 09:55 59.14228 11.34977 35260 ft 420 kts 350°
2026-05-07 09:55 59.17159 11.34810 35365 ft 423 kts 352°
2026-05-07 09:56 59.20087 11.34750 35487 ft 424 kts 352°
2026-05-07 09:56 59.25988 11.34677 35664 ft 427 kts 353°
2026-05-07 09:56 59.28948 11.34642 35773 ft 428 kts 353°
2026-05-07 09:57 59.31914 11.34604 35889 ft 429 kts 353°
2026-05-07 09:57 59.37874 11.34518 36042 ft 432 kts 353°
2026-05-07 09:58 59.43880 11.34434 36054 ft 434 kts 353°
2026-05-07 09:58 59.49893 11.34347 36047 ft 434 kts 353°
2026-05-07 09:59 59.55902 11.34260 36039 ft 434 kts 353°
2026-05-07 09:59 59.61924 11.34170 36050 ft 434 kts 353°
2026-05-07 10:00 59.67943 11.34080 36054 ft 435 kts 353°
2026-05-07 10:00 59.73961 11.33992 36049 ft 435 kts 353°
2026-05-07 10:01 59.79988 11.33898 36041 ft 435 kts 353°
2026-05-07 10:01 59.86024 11.33808 36052 ft 435 kts 353°
2026-05-07 10:02 59.92046 11.33715 36045 ft 435 kts 353°
2026-05-07 10:02 59.98072 11.33623 36043 ft 435 kts 353°
2026-05-07 10:03 60.04098 11.33530 36061 ft 435 kts 353°
2026-05-07 10:03 60.10135 11.33437 36045 ft 436 kts 353°
2026-05-07 10:04 60.16196 11.33342 36050 ft 437 kts 353°
2026-05-07 10:04 60.22253 11.33247 36052 ft 437 kts 353°
2026-05-07 10:05 60.28313 11.33152 36044 ft 437 kts 353°
2026-05-07 10:05 60.34374 11.33056 36045 ft 438 kts 353°
2026-05-07 10:06 60.40447 11.32961 36057 ft 439 kts 353°
2026-05-07 10:06 60.46517 11.32867 36051 ft 439 kts 353°
2026-05-07 10:07 60.52593 11.32772 36042 ft 439 kts 353°
2026-05-07 10:07 60.58682 11.32672 36038 ft 440 kts 353°
2026-05-07 10:08 60.64773 11.32577 36048 ft 440 kts 353°
2026-05-07 10:08 60.70857 11.32482 36054 ft 439 kts 353°
2026-05-07 10:09 60.76949 11.32382 36052 ft 441 kts 353°
2026-05-07 10:09 60.83058 11.32284 36042 ft 441 kts 353°
2026-05-07 10:10 60.89166 11.32182 36031 ft 441 kts 353°
2026-05-07 10:10 60.95276 11.32085 36040 ft 441 kts 353°
2026-05-07 10:11 61.01375 11.31986 36003 ft 441 kts 353°
2026-05-07 10:11 61.07484 11.31886 36019 ft 441 kts 353°
2026-05-07 10:12 61.13608 11.31783 36021 ft 443 kts 353°
2026-05-07 10:12 61.19730 11.31683 36018 ft 442 kts 353°
2026-05-07 10:13 61.25852 11.31583 36031 ft 442 kts 353°
2026-05-07 10:13 61.31973 11.31482 36032 ft 442 kts 353°
2026-05-07 10:14 61.38104 11.31376 36019 ft 444 kts 353°
2026-05-07 10:14 61.44244 11.31275 36043 ft 443 kts 353°
2026-05-07 10:15 61.50395 11.31170 36028 ft 444 kts 353°
2026-05-07 10:15 61.56547 11.31065 36024 ft 445 kts 354°
2026-05-07 10:16 61.62706 11.30962 36022 ft 444 kts 354°
2026-05-07 10:16 61.68856 11.30862 36022 ft 445 kts 353°
2026-05-07 10:17 61.75009 11.30754 35990 ft 444 kts 354°
2026-05-07 10:17 61.81156 11.30647 35982 ft 445 kts 353°
2026-05-07 10:18 61.87317 11.30541 35983 ft 446 kts 354°
2026-05-07 10:18 61.93489 11.30434 35952 ft 447 kts 354°
2026-05-07 10:18 61.96588 11.30380 35564 ft 447 kts 354°
2026-05-07 10:19 61.99666 11.30331 35086 ft 444 kts 353°
2026-05-07 10:19 62.02738 11.30283 34544 ft 444 kts 353°
2026-05-07 10:19 62.05804 11.30231 33985 ft 444 kts 353°
2026-05-07 10:19 62.08874 11.30179 33444 ft 444 kts 353°
2026-05-07 10:20 62.11955 11.30122 32899 ft 445 kts 353°
2026-05-07 10:20 62.15036 11.30066 32356 ft 446 kts 353°
2026-05-07 10:20 62.18124 11.30009 31764 ft 448 kts 353°
2026-05-07 10:20 62.21220 11.29953 31151 ft 449 kts 353°
2026-05-07 10:21 62.24314 11.29899 30656 ft 445 kts 353°
2026-05-07 10:21 62.27371 11.29849 30223 ft 440 kts 353°
2026-05-07 10:21 62.30399 11.29797 29765 ft 435 kts 353°
2026-05-07 10:21 62.33395 11.29745 29346 ft 430 kts 353°
2026-05-07 10:22 62.36348 11.29691 28941 ft 424 kts 353°
2026-05-07 10:22 62.39264 11.29640 28555 ft 419 kts 353°
2026-05-07 10:22 62.42141 11.29590 28156 ft 414 kts 353°
2026-05-07 10:22 62.44993 11.29540 27668 ft 410 kts 353°
2026-05-07 10:23 62.47812 11.29485 27174 ft 406 kts 353°
2026-05-07 10:23 62.50606 11.29433 26686 ft 402 kts 353°
2026-05-07 10:23 62.53376 11.29380 26190 ft 398 kts 353°
2026-05-07 10:23 62.56120 11.29331 25678 ft 395 kts 353°
2026-05-07 10:24 62.58841 11.29284 25183 ft 391 kts 353°
2026-05-07 10:24 62.61530 11.29236 24729 ft 387 kts 353°
2026-05-07 10:24 62.64193 11.29186 24260 ft 383 kts 353°
2026-05-07 10:24 62.66830 11.29135 23786 ft 380 kts 353°
2026-05-07 10:25 62.69445 11.29084 23283 ft 378 kts 354°
2026-05-07 10:25 62.72052 11.29036 22769 ft 375 kts 354°
2026-05-07 10:25 62.74642 11.28990 22303 ft 372 kts 354°
2026-05-07 10:25 62.77210 11.28941 21834 ft 369 kts 354°
2026-05-07 10:26 62.79761 11.28892 21344 ft 367 kts 354°
2026-05-07 10:26 62.82291 11.28847 20865 ft 364 kts 354°
2026-05-07 10:26 62.84807 11.28747 20400 ft 361 kts 354°
2026-05-07 10:26 62.87287 11.28485 19895 ft 357 kts 349°
2026-05-07 10:27 62.89595 11.26827 19100 ft 351 kts 326°
2026-05-07 10:27 62.91536 11.23749 18245 ft 345 kts 320°
2026-05-07 10:27 62.93427 11.20611 17171 ft 345 kts 321°
2026-05-07 10:27 62.95330 11.17514 16108 ft 343 kts 321°
2026-05-07 10:28 62.97240 11.14462 15073 ft 341 kts 322°
2026-05-07 10:28 62.99144 11.11459 14033 ft 339 kts 323°
2026-05-07 10:28 63.01037 11.08498 13044 ft 335 kts 323°
2026-05-07 10:28 63.02916 11.05572 12082 ft 331 kts 323°
2026-05-07 10:29 63.04767 11.02690 11246 ft 323 kts 323°
2026-05-07 10:29 63.06557 10.99910 10667 ft 310 kts 323°
2026-05-07 10:29 63.08288 10.97217 10167 ft 302 kts 323°
2026-05-07 10:30 63.11611 10.92033 9305 ft 285 kts 323°
2026-05-07 10:30 63.13204 10.89548 8998 ft 279 kts 323°
2026-05-07 10:30 63.14772 10.87094 8622 ft 276 kts 323°
2026-05-07 10:30 63.16327 10.84657 8271 ft 273 kts 323°
2026-05-07 10:31 63.17861 10.82252 7938 ft 270 kts 323°
2026-05-07 10:31 63.19381 10.79867 7606 ft 267 kts 323°
2026-05-07 10:31 63.20883 10.77508 7278 ft 264 kts 323°
2026-05-07 10:31 63.22366 10.75173 6946 ft 262 kts 323°
2026-05-07 10:32 63.23838 10.72851 6623 ft 259 kts 323°
2026-05-07 10:32 63.25297 10.70548 6307 ft 257 kts 323°
2026-05-07 10:32 63.26742 10.68267 5990 ft 255 kts 323°
2026-05-07 10:32 63.28172 10.66003 5680 ft 252 kts 324°
2026-05-07 10:33 63.29590 10.63756 5381 ft 250 kts 324°
2026-05-07 10:33 63.30995 10.61531 5078 ft 248 kts 323°
2026-05-07 10:33 63.32392 10.59314 4766 ft 247 kts 323°
2026-05-07 10:33 63.33780 10.57107 4454 ft 246 kts 323°
2026-05-07 10:34 63.35163 10.54909 4186 ft 242 kts 323°
2026-05-07 10:34 63.36494 10.52787 4103 ft 231 kts 323°
2026-05-07 10:34 63.37798 10.50724 4012 ft 231 kts 325°
2026-05-07 10:34 63.39300 10.49530 3946 ft 237 kts 358°
2026-05-07 10:35 63.40901 10.50324 3653 ft 239 kts 20°
2026-05-07 10:35 63.42424 10.51736 3371 ft 237 kts 22°
2026-05-07 10:35 63.43924 10.53155 3116 ft 233 kts 22°
2026-05-07 10:35 63.45233 10.55156 2852 ft 230 kts 52°
2026-05-07 10:36 63.45841 10.58310 2710 ft 221 kts 83°
2026-05-07 10:36 63.45915 10.61688 2527 ft 213 kts 91°
2026-05-07 10:36 63.45874 10.64887 2220 ft 200 kts 93°
2026-05-07 10:36 63.45833 10.67897 1904 ft 190 kts 91°
2026-05-07 10:37 63.45818 10.70770 1589 ft 181 kts 88°
2026-05-07 10:37 63.45825 10.73478 1355 ft 168 kts 89°
2026-05-07 10:37 63.45800 10.75973 1212 ft 158 kts 92°
2026-05-07 10:37 63.45768 10.78400 999 ft 155 kts 91°
2026-05-07 10:38 63.45783 10.80784 773 ft 153 kts 89°
2026-05-07 10:38 63.45794 10.83070 605 ft 142 kts 91°
2026-05-07 10:38 63.45772 10.85249 379 ft 139 kts 90°
2026-05-07 10:38 63.45765 10.87409 208 ft 139 kts 90°
2026-05-07 10:39 63.45764 10.89566 53 ft 139 kts 89°
2026-05-07 10:39 63.45764 10.91592 32 ft 103 kts 93°
2026-05-07 10:39 63.45760 10.92677 40 ft 57 kts 90°
2026-05-07 10:39 63.45757 10.93511 48 ft 50 kts 90°
2026-05-07 10:40 63.45750 10.94050 54 ft 20 kts 120°
2026-05-07 10:40 63.45662 10.93981 53 ft 15 kts 225°
2026-05-07 10:40 63.45597 10.93776 51 ft 16 kts 255°
2026-05-07 10:40 63.45593 10.93498 48 ft 19 kts 271°
2026-05-07 10:41 63.45595 10.93188 44 ft 21 kts 271°
2026-05-07 10:41 63.45594 10.92854 42 ft 22 kts 271°
2026-05-07 10:41 63.45595 10.92503 39 ft 23 kts 270°
2026-05-07 10:41 63.45596 10.92147 37 ft 23 kts 269°
2026-05-07 10:42 63.45595 10.91839 34 ft 14 kts 269°
2026-05-07 10:42 63.45540 10.91738 34 ft 8 kts 180°
2026-05-07 10:42 63.45504 10.91738 34 ft 3 kts 180°
2026-05-07 10:42 63.45501 10.91738 33 ft 0 kts 180°